| time (UTC) | temp F | wind direction | speed MPH | gust MPH | rain 1hr in | rain 24hr in | rain mn in | humidity % | barometer mb |
| 20260509034503 | 44 | 133 | 2.0 | 6.0 | 0.00 | 0.00 | 0.00 | 69 | 1010.2 |
| 20260509034004 | 44 | 168 | 3.0 | 6.0 | 0.00 | 0.00 | 0.00 | 69 | 1010.0 |
| 20260509033504 | 44 | 171 | 4.0 | 7.0 | 0.00 | 0.00 | 0.00 | 68 | 1009.8 |
| 20260509033004 | 44 | 144 | 4.0 | 8.0 | 0.00 | 0.00 | 0.00 | 69 | 1009.8 |
| 20260509032504 | 44 | 187 | 5.0 | 8.0 | 0.00 | 0.00 | 0.00 | 69 | 1009.9 |
| 20260509032004 | 44 | 201 | 5.0 | 8.0 | 0.00 | 0.00 | 0.00 | 69 | 1010.2 |
| 20260509031504 | 44 | 173 | 4.0 | 8.0 | 0.00 | 0.00 | 0.00 | 69 | 1010.2 |
| 20260509031004 | 44 | 200 | 2.0 | 8.0 | 0.00 | 0.00 | 0.00 | 69 | 1010.2 |
| 20260509030504 | 44 | 168 | 3.0 | 7.0 | 0.00 | 0.00 | 0.00 | 70 | 1010.5 |
| 20260509030004 | 44 | 176 | 4.0 | 7.0 | 0.00 | 0.00 | 0.00 | 70 | 1010.5 |
| 20260509025504 | 45 | 185 | 4.0 | 7.0 | 0.00 | 0.00 | 0.00 | 70 | 1010.2 |
| 20260509025004 | 45 | 191 | 6.0 | 8.0 | 0.00 | 0.00 | 0.00 | 70 | 1010.5 |
| 20260509024503 | 45 | 181 | 3.0 | 8.0 | 0.00 | 0.00 | 0.00 | 70 | 1010.5 |
| 20260509024004 | 45 | 186 | 3.0 | 8.0 | 0.00 | 0.00 | 0.00 | 69 | 1010.2 |
| 20260509023504 | 45 | 142 | 2.0 | 8.0 | 0.00 | 0.00 | 0.00 | 70 | 1010.2 |
| 20260509023004 | 45 | 191 | 2.0 | 6.0 | 0.00 | 0.00 | 0.00 | 70 | 1010.5 |
| 20260509022504 | 45 | 186 | 5.0 | 5.0 | 0.00 | 0.00 | 0.00 | 70 | 1010.2 |
| 20260509021504 | 45 | 165 | 2.0 | 6.0 | 0.00 | 0.00 | 0.00 | 70 | 1010.2 |
| 20260509021005 | 46 | 157 | 1.0 | 6.0 | 0.00 | 0.00 | 0.00 | 70 | 1010.2 |
| 20260509020504 | 46 | 148 | 3.0 | 5.0 | 0.00 | 0.00 | 0.00 | 70 | 1010.5 |
| 20260509020006 | 46 | 73 | 1.0 | 5.0 | 0.00 | 0.00 | 0.00 | 69 | 1010.2 |
| 20260509015504 | 46 | 187 | 3.0 | 5.0 | 0.00 | 0.00 | 0.00 | 70 | 1010.2 |
| 20260509015004 | 46 | 187 | 5.0 | 5.0 | 0.00 | 0.00 | 0.00 | 69 | 1010.2 |
| 20260509014504 | 46 | 137 | 2.0 | 5.0 | 0.00 | 0.00 | 0.00 | 69 | 1010.2 |
| 20260509014005 | 46 | 145 | 2.0 | 5.0 | 0.00 | 0.00 | 0.00 | 69 | 1010.2 |
| 20260509013504 | 47 | 143 | 3.0 | 5.0 | 0.00 | 0.00 | 0.00 | 69 | 1010.2 |
| 20260509013004 | 47 | 194 | 2.0 | 8.0 | 0.00 | 0.00 | 0.00 | 67 | 1010.2 |
| 20260509012505 | 47 | 186 | 3.0 | 9.0 | 0.00 | 0.00 | 0.00 | 66 | 1010.2 |
| 20260509012004 | 47 | 138 | 2.0 | 9.0 | 0.00 | 0.00 | 0.00 | 64 | 1009.8 |
| 20260509011504 | 48 | 145 | 3.0 | 9.0 | 0.00 | 0.00 | 0.00 | 63 | 1010.2 |
| 20260509011004 | 48 | 141 | 3.0 | 6.0 | 0.00 | 0.00 | 0.00 | 55 | 1010.2 |
| 20260509010005 | 49 | 144 | 2.0 | 3.0 | 0.00 | 0.00 | 0.00 | 48 | 1010.5 |
| 20260509005504 | 49 | 182 | 2.0 | 3.0 | 0.00 | 0.00 | 0.00 | 47 | 1010.2 |
| 20260509005004 | 49 | 148 | 2.0 | 3.0 | 0.00 | 0.00 | 0.00 | 47 | 1010.2 |
| 20260509004504 | 50 | 148 | 1.0 | 3.0 | 0.00 | 0.00 | 0.00 | 47 | 1010.2 |
| 20260509003504 | 50 | 155 | 2.0 | 3.0 | 0.00 | 0.00 | 0.00 | 45 | 1010.2 |
| 20260509003005 | 50 | 154 | 2.0 | 3.0 | 0.00 | 0.00 | 0.00 | 45 | 1009.8 |
| 20260509002504 | 51 | 198 | 2.0 | 6.0 | 0.00 | 0.00 | 0.00 | 44 | 1009.5 |
| 20260509002004 | 51 | 174 | 2.0 | 6.0 | 0.00 | 0.00 | 0.00 | 44 | 1009.8 |
| 20260509001504 | 51 | 201 | 6.0 | 7.0 | 0.00 | 0.00 | 0.00 | 43 | 1009.8 |
| 20260509001005 | 51 | 190 | 3.0 | 7.0 | 0.00 | 0.00 | 0.00 | 43 | 1009.8 |
| 20260509000005 | 52 | 180 | 2.0 | 10.0 | 0.00 | 0.00 | 0.00 | 42 | 1009.5 |
| 20260508235504 | 52 | 158 | 5.0 | 10.0 | 0.00 | 0.00 | 0.00 | 42 | 1009.8 |
| 20260508235005 | 52 | 178 | 5.0 | 10.0 | 0.00 | 0.00 | 0.00 | 41 | 1009.8 |
| 20260508234505 | 52 | 186 | 3.0 | 6.0 | 0.00 | 0.00 | 0.00 | 41 | 1009.8 |
| 20260508234004 | 53 | 197 | 3.0 | 6.0 | 0.00 | 0.00 | 0.00 | 42 | 1009.5 |
| 20260508233505 | 53 | 163 | 3.0 | 6.0 | 0.00 | 0.00 | 0.00 | 42 | 1009.5 |
| 20260508233004 | 53 | 187 | 3.0 | 6.0 | 0.00 | 0.00 | 0.00 | 42 | 1009.8 |
| 20260508232505 | 53 | 185 | 2.0 | 6.0 | 0.00 | 0.00 | 0.00 | 42 | 1010.2 |
| 20260508232005 | 53 | 188 | 2.0 | 6.0 | 0.00 | 0.00 | 0.00 | 42 | 1009.8 |
| 20260508231504 | 53 | 182 | 2.0 | 6.0 | 0.00 | 0.00 | 0.00 | 43 | 1010.2 |
| 20260508230504 | 53 | 184 | 2.0 | 7.0 | 0.00 | 0.00 | 0.00 | 41 | 1010.2 |
| 20260508225004 | 54 | 160 | 1.0 | 5.0 | 0.00 | 0.00 | 0.00 | 41 | 1009.8 |
| 20260508224505 | 55 | 224 | 1.0 | 5.0 | 0.00 | 0.00 | 0.00 | 40 | 1010.1 |
| 20260508224004 | 55 | 341 | 1.0 | 5.0 | 0.00 | 0.00 | 0.00 | 40 | 1010.2 |
| 20260508223504 | 55 | 323 | 3.0 | 5.0 | 0.00 | 0.00 | 0.00 | 40 | 1010.2 |
| 20260508223005 | 55 | 278 | 3.0 | 6.0 | 0.00 | 0.00 | 0.00 | 40 | 1010.0 |
| 20260508222004 | 55 | 301 | 2.0 | 6.0 | 0.00 | 0.00 | 0.00 | 40 | 1010.1 |
| 20260508221504 | 56 | 283 | 2.0 | 6.0 | 0.00 | 0.00 | 0.00 | 40 | 1009.8 |
| 20260508220505 | 55 | 231 | 0.0 | 5.0 | 0.00 | 0.00 | 0.00 | 40 | 1009.8 |
| 20260508214003 | 54 | 182 | 3.0 | 10.0 | 0.00 | 0.00 | 0.00 | 42 | 1010.5 |
| 20260508213503 | 54 | 270 | 1.0 | 10.0 | 0.00 | 0.00 | 0.00 | 41 | 1010.5 |
| 20260508213004 | 54 | 313 | 5.0 | 9.0 | 0.00 | 0.00 | 0.00 | 41 | 1010.5 |
| 20260508212003 | 54 | 27 | 0.0 | 8.0 | 0.00 | 0.00 | 0.00 | 41 | 1010.2 |
| 20260508211502 | 56 | 321 | 7.0 | 8.0 | 0.00 | 0.00 | 0.00 | 41 | 1010.5 |
| 20260508210503 | 55 | 307 | 1.0 | 7.0 | 0.00 | 0.00 | 0.00 | 40 | 1010.5 |
| 20260508205504 | 53 | 310 | 5.0 | 13.0 | 0.00 | 0.00 | 0.00 | 42 | 1010.5 |
| 20260508205004 | 54 | 208 | 3.0 | 13.0 | 0.00 | 0.00 | 0.00 | 42 | 1010.8 |
| 20260508204503 | 53 | 322 | 6.0 | 13.0 | 0.00 | 0.00 | 0.00 | 43 | 1010.2 |
| 20260508204003 | 53 | 293 | 10.0 | 13.0 | 0.00 | 0.00 | 0.00 | 43 | 1010.4 |
| 20260508203504 | 53 | 290 | 6.0 | 13.0 | 0.00 | 0.00 | 0.00 | 43 | 1010.5 |
| 20260508203003 | 53 | 280 | 2.0 | 10.0 | 0.00 | 0.00 | 0.00 | 43 | 1010.9 |
| 20260508202503 | 53 | 283 | 3.0 | 9.0 | 0.00 | 0.00 | 0.00 | 43 | 1011.0 |
| 20260508201503 | 53 | 279 | 1.0 | 13.0 | 0.00 | 0.00 | 0.00 | 44 | 1011.0 |
| 20260508201003 | 53 | 290 | 3.0 | 13.0 | 0.00 | 0.00 | 0.00 | 44 | 1011.2 |
| 20260508200504 | 53 | 308 | 6.0 | 13.0 | 0.00 | 0.00 | 0.00 | 45 | 1011.2 |
| 20260508200003 | 53 | 290 | 5.0 | 13.0 | 0.00 | 0.00 | 0.00 | 45 | 1011.1 |
| 20260508195503 | 53 | 285 | 6.0 | 12.0 | 0.00 | 0.00 | 0.00 | 46 | 1010.8 |
| 20260508195003 | 51 | 337 | 9.0 | 12.0 | 0.00 | 0.00 | 0.00 | 45 | 1010.8 |
| 20260508194503 | 52 | 352 | 8.0 | 16.0 | 0.00 | 0.00 | 0.00 | 44 | 1011.2 |
| 20260508194003 | 51 | 290 | 6.0 | 16.0 | 0.00 | 0.00 | 0.00 | 46 | 1010.8 |
| 20260508193502 | 51 | 296 | 7.0 | 16.0 | 0.00 | 0.00 | 0.00 | 45 | 1011.2 |
| 20260508193004 | 51 | 284 | 7.0 | 13.0 | 0.00 | 0.00 | 0.00 | 44 | 1010.8 |
| 20260508192503 | 51 | 301 | 6.0 | 13.0 | 0.00 | 0.00 | 0.00 | 45 | 1011.2 |
| 20260508192003 | 53 | 319 | 3.0 | 13.0 | 0.00 | 0.00 | 0.00 | 43 | 1010.5 |
| 20260508190503 | 53 | 290 | 5.0 | 14.0 | 0.00 | 0.00 | 0.00 | 44 | 1011.5 |
| 20260508190004 | 53 | 214 | 3.0 | 14.0 | 0.00 | 0.00 | 0.00 | 44 | 1011.5 |
| 20260508185503 | 52 | 326 | 2.0 | 14.0 | 0.00 | 0.00 | 0.00 | 45 | 1011.2 |
| 20260508185004 | 53 | 284 | 3.0 | 7.0 | 0.00 | 0.00 | 0.00 | 44 | 1011.5 |
| 20260508184003 | 51 | 52 | 1.0 | 7.0 | 0.00 | 0.00 | 0.00 | 47 | 1011.9 |
| 20260508183504 | 52 | 259 | 1.0 | 10.0 | 0.00 | 0.00 | 0.00 | 47 | 1011.2 |
| 20260508183003 | 51 | 279 | 2.0 | 10.0 | 0.00 | 0.00 | 0.00 | 45 | 1011.5 |
| 20260508182503 | 52 | 167 | 6.0 | 15.0 | 0.00 | 0.00 | 0.00 | 48 | 1011.9 |
| 20260508182004 | 52 | 305 | 6.0 | 15.0 | 0.00 | 0.00 | 0.00 | 45 | 1011.5 |
| 20260508181003 | 51 | 325 | 3.0 | 15.0 | 0.00 | 0.00 | 0.00 | 46 | 1011.9 |
| 20260508180503 | 50 | 353 | 2.0 | 10.0 | 0.00 | 0.00 | 0.00 | 46 | 1011.9 |
| 20260508180003 | 51 | 270 | 5.0 | 10.0 | 0.00 | 0.00 | 0.00 | 45 | 1011.2 |
| 20260508175503 | 51 | 273 | 3.0 | 10.0 | 0.00 | 0.00 | 0.00 | 45 | 1011.9 |
| 20260508175004 | 52 | 205 | 3.0 | 7.0 | 0.00 | 0.00 | 0.00 | 45 | 1011.5 |
| 20260508174503 | 52 | 196 | 3.0 | 7.0 | 0.00 | 0.00 | 0.00 | 43 | 1011.5 |
| 20260508174003 | 51 | 264 | 3.0 | 10.0 | 0.00 | 0.00 | 0.00 | 46 | 1011.9 |
| 20260508173503 | 50 | 258 | 2.0 | 10.0 | 0.00 | 0.00 | 0.00 | 47 | 1011.9 |
| 20260508173004 | 49 | 312 | 8.0 | 10.0 | 0.00 | 0.00 | 0.00 | 47 | 1011.9 |
| 20260508172503 | 50 | 314 | 8.0 | 10.0 | 0.00 | 0.00 | 0.00 | 46 | 1011.9 |
| 20260508171503 | 49 | 319 | 6.0 | 13.0 | 0.00 | 0.00 | 0.00 | 47 | 1011.9 |
| 20260508170504 | 49 | 306 | 5.0 | 14.0 | 0.00 | 0.00 | 0.00 | 46 | 1011.9 |
| 20260508170003 | 49 | 346 | 13.0 | 14.0 | 0.00 | 0.00 | 0.00 | 48 | 1011.9 |
| 20260508165503 | 49 | 333 | 3.0 | 8.0 | 0.00 | 0.00 | 0.00 | 49 | 1011.9 |
| 20260508165004 | 49 | 322 | 5.0 | 8.0 | 0.00 | 0.00 | 0.00 | 48 | 1012.2 |
| 20260508164004 | 49 | 294 | 3.0 | 10.0 | 0.00 | 0.00 | 0.00 | 48 | 1011.9 |
| 20260508163003 | 49 | 126 | 0.0 | 7.0 | 0.00 | 0.00 | 0.00 | 47 | 1012.2 |
| 20260508162503 | 50 | 173 | 2.0 | 7.0 | 0.00 | 0.00 | 0.00 | 46 | 1012.2 |
| 20260508162004 | 50 | 202 | 1.0 | 7.0 | 0.00 | 0.00 | 0.00 | 47 | 1012.2 |
| 20260508161503 | 51 | 283 | 3.0 | 7.0 | 0.00 | 0.00 | 0.00 | 49 | 1012.5 |
| 20260508161003 | 49 | 306 | 2.0 | 7.0 | 0.00 | 0.00 | 0.00 | 50 | 1012.2 |
| 20260508160503 | 49 | 339 | 3.0 | 7.0 | 0.00 | 0.00 | 0.00 | 51 | 1012.5 |
| 20260508160004 | 48 | 201 | 0.0 | 7.0 | 0.00 | 0.00 | 0.00 | 51 | 1012.9 |
| 20260508155004 | 50 | 288 | 3.0 | 6.0 | 0.00 | 0.00 | 0.00 | 51 | 1012.2 |
| 20260508154503 | 48 | 255 | 0.0 | 6.0 | 0.00 | 0.00 | 0.00 | 53 | 1012.5 |
| 20260508152503 | 49 | 305 | 5.0 | 7.0 | 0.00 | 0.00 | 0.00 | 52 | 1012.9 |
| 20260508150503 | 46 | 295 | 2.0 | 12.0 | 0.00 | 0.00 | 0.00 | 55 | 1013.1 |
| 20260508150003 | 47 | 285 | 6.0 | 12.0 | 0.00 | 0.00 | 0.00 | 54 | 1013.0 |
| 20260508145503 | 47 | 298 | 3.0 | 12.0 | 0.00 | 0.00 | 0.00 | 54 | 1012.9 |
| 20260508145004 | 46 | 305 | 3.0 | 8.0 | 0.00 | 0.00 | 0.00 | 55 | 1012.9 |
| 20260508144503 | 46 | 317 | 2.0 | 8.0 | 0.00 | 0.00 | 0.00 | 55 | 1012.9 |
| 20260508144003 | 46 | 319 | 5.0 | 8.0 | 0.00 | 0.00 | 0.00 | 55 | 1012.9 |
| 20260508143503 | 46 | 311 | 3.0 | 7.0 | 0.00 | 0.00 | 0.00 | 55 | 1012.7 |
| 20260508142005 | 46 | 325 | 2.0 | 8.0 | 0.00 | 0.00 | 0.00 | 55 | 1013.0 |
| 20260508141503 | 45 | 120 | 4.0 | 9.0 | 0.00 | 0.00 | 0.00 | 58 | 1013.5 |
| 20260508141004 | 44 | 328 | 6.0 | 9.0 | 0.00 | 0.00 | 0.00 | 56 | 1013.5 |
| 20260508140504 | 46 | 306 | 6.0 | 9.0 | 0.00 | 0.00 | 0.00 | 55 | 1012.9 |
| 20260508140005 | 46 | 177 | 5.0 | 9.0 | 0.00 | 0.00 | 0.00 | 56 | 1012.9 |
| 20260508135504 | 45 | 294 | 1.0 | 5.0 | 0.00 | 0.00 | 0.00 | 59 | 1012.9 |
| 20260508135003 | 44 | 200 | 1.0 | 5.0 | 0.00 | 0.00 | 0.00 | 62 | 1012.9 |
| 20260508134503 | 45 | 239 | 2.0 | 6.0 | 0.00 | 0.00 | 0.00 | 59 | 1012.9 |
| 20260508134003 | 45 | 316 | 2.0 | 6.0 | 0.00 | 0.00 | 0.00 | 60 | 1012.9 |
| 20260508133503 | 43 | 323 | 1.0 | 6.0 | 0.00 | 0.00 | 0.00 | 64 | 1013.2 |
| 20260508133003 | 45 | 153 | 4.0 | 6.0 | 0.00 | 0.00 | 0.00 | 60 | 1012.9 |
| 20260508131503 | 43 | 129 | 1.0 | 7.0 | 0.00 | 0.00 | 0.00 | 62 | 1013.2 |
| 20260508131003 | 43 | 160 | 3.0 | 7.0 | 0.00 | 0.00 | 0.00 | 62 | 1012.9 |
| 20260508130504 | 43 | 148 | 3.0 | 7.0 | 0.00 | 0.00 | 0.00 | 61 | 1012.9 |
| 20260508130004 | 43 | 94 | 2.0 | 7.0 | 0.00 | 0.00 | 0.00 | 62 | 1012.9 |
| 20260508125503 | 42 | 179 | 5.0 | 7.0 | 0.00 | 0.00 | 0.00 | 63 | 1012.9 |
| 20260508125006 | 42 | 161 | 3.0 | 7.0 | 0.00 | 0.00 | 0.00 | 62 | 1013.2 |
| 20260508124504 | 42 | 308 | 1.0 | 7.0 | 0.00 | 0.00 | 0.00 | 62 | 1013.2 |
| 20260508124003 | 41 | 153 | 2.0 | 7.0 | 0.00 | 0.00 | 0.00 | 63 | 1012.9 |
| 20260508123506 | 42 | 252 | 0.0 | 6.0 | 0.00 | 0.00 | 0.00 | 62 | 1012.9 |
| 20260508123004 | 42 | 172 | 3.0 | 6.0 | 0.00 | 0.00 | 0.00 | 64 | 1012.9 |
| 20260508122503 | 42 | 139 | 1.0 | 6.0 | 0.00 | 0.00 | 0.00 | 63 | 1013.2 |
| 20260508122003 | 41 | 175 | 1.0 | 3.0 | 0.00 | 0.00 | 0.00 | 63 | 1012.5 |
| 20260508121504 | 40 | 136 | 3.0 | 3.0 | 0.00 | 0.00 | 0.00 | 66 | 1012.9 |
| 20260508121004 | 40 | 168 | 3.0 | 5.0 | 0.00 | 0.00 | 0.00 | 66 | 1012.9 |
| 20260508120005 | 39 | 166 | 3.0 | 5.0 | 0.00 | 0.00 | 0.00 | 69 | 1012.9 |
| 20260508115505 | 38 | 175 | 3.0 | 5.0 | 0.00 | 0.00 | 0.00 | 72 | 1012.9 |
| 20260508115004 | 38 | 132 | 2.0 | 5.0 | 0.00 | 0.00 | 0.00 | 71 | 1012.9 |
| 20260508114503 | 38 | 169 | 2.0 | 3.0 | 0.00 | 0.00 | 0.00 | 69 | 1013.2 |
| 20260508114005 | 38 | 129 | 3.0 | 3.0 | 0.00 | 0.00 | 0.00 | 68 | 1013.2 |
| 20260508113503 | 38 | 168 | 2.0 | 5.0 | 0.00 | 0.00 | 0.00 | 69 | 1012.5 |
| 20260508113004 | 38 | 122 | 2.0 | 5.0 | 0.00 | 0.00 | 0.00 | 69 | 1012.9 |
| 20260508112503 | 38 | 130 | 5.0 | 5.0 | 0.00 | 0.00 | 0.00 | 70 | 1012.9 |
| 20260508112004 | 37 | 127 | 3.0 | 3.0 | 0.00 | 0.00 | 0.00 | 72 | 1013.2 |
| 20260508111503 | 37 | 143 | 1.0 | 3.0 | 0.00 | 0.00 | 0.00 | 73 | 1012.9 |
| 20260508111004 | 37 | 145 | 2.0 | 3.0 | 0.00 | 0.00 | 0.00 | 73 | 1012.9 |
| 20260508110505 | 38 | 122 | 2.0 | 3.0 | 0.00 | 0.00 | 0.00 | 73 | 1012.5 |
| 20260508110004 | 38 | 97 | 2.0 | 3.0 | 0.00 | 0.00 | 0.00 | 74 | 1012.5 |
| 20260508105503 | 38 | 83 | 2.0 | 3.0 | 0.00 | 0.00 | 0.00 | 75 | 1012.5 |
| 20260508105004 | 37 | 103 | 2.0 | 3.0 | 0.00 | 0.00 | 0.00 | 75 | 1012.9 |
| 20260508104504 | 38 | 111 | 1.0 | 2.0 | 0.00 | 0.00 | 0.00 | 75 | 1012.5 |
| 20260508104005 | 37 | 102 | 0.0 | 2.0 | 0.00 | 0.00 | 0.00 | 77 | 1012.9 |
| 20260508103004 | 36 | 118 | 1.0 | 2.0 | 0.00 | 0.00 | 0.00 | 78 | 1012.5 |
| 20260508102504 | 34 | 89 | 1.0 | 2.0 | 0.00 | 0.00 | 0.00 | 80 | 1012.9 |
| 20260508102005 | 34 | 84 | 2.0 | 2.0 | 0.00 | 0.00 | 0.00 | 82 | 1012.5 |
| 20260508101504 | 33 | 76 | 2.0 | 2.0 | 0.00 | 0.00 | 0.00 | 82 | 1012.9 |
| 20260508101004 | 33 | 99 | 1.0 | 2.0 | 0.00 | 0.00 | 0.00 | 82 | 1012.9 |
| 20260508100503 | 33 | 90 | 2.0 | 3.0 | 0.00 | 0.00 | 0.00 | 81 | 1012.9 |
| 20260508095505 | 34 | 128 | 2.0 | 3.0 | 0.00 | 0.00 | 0.00 | 80 | 1012.2 |
| 20260508095003 | 35 | 113 | 2.0 | 2.0 | 0.00 | 0.00 | 0.00 | 78 | 1012.5 |
| 20260508094504 | 35 | 99 | 2.0 | 2.0 | 0.00 | 0.00 | 0.00 | 78 | 1012.5 |
| 20260508094004 | 36 | 83 | 1.0 | 2.0 | 0.00 | 0.00 | 0.00 | 76 | 1012.5 |
| 20260508093503 | 36 | 88 | 2.0 | 2.0 | 0.00 | 0.00 | 0.00 | 76 | 1012.5 |
| 20260508093004 | 37 | 74 | 2.0 | 2.0 | 0.00 | 0.00 | 0.00 | 74 | 1012.9 |
| 20260508092503 | 39 | 79 | 2.0 | 2.0 | 0.00 | 0.00 | 0.00 | 72 | 1012.5 |
| 20260508092004 | 38 | 76 | 0.0 | 2.0 | 0.00 | 0.00 | 0.00 | 73 | 1012.2 |
| 20260508091504 | 38 | 82 | 2.0 | 2.0 | 0.00 | 0.00 | 0.00 | 74 | 1012.2 |
| 20260508091004 | 37 | 86 | 1.0 | 3.0 | 0.00 | 0.00 | 0.00 | 74 | 1012.4 |
| 20260508090503 | 37 | 90 | 1.0 | 3.0 | 0.00 | 0.00 | 0.00 | 73 | 1012.8 |
| 20260508090004 | 37 | 111 | 2.0 | 3.0 | 0.00 | 0.00 | 0.00 | 74 | 1012.9 |
| 20260508085004 | 35 | 145 | 2.0 | 3.0 | 0.00 | 0.00 | 0.00 | 76 | 1012.5 |
| 20260508084504 | 35 | 137 | 2.0 | 2.0 | 0.00 | 0.00 | 0.00 | 77 | 1012.4 |
| 20260508084003 | 34 | 125 | 2.0 | 3.0 | 0.00 | 0.00 | 0.00 | 78 | 1012.2 |
| 20260508082504 | 35 | 171 | 2.0 | 3.0 | 0.00 | 0.00 | 0.00 | 77 | 1012.9 |
| 20260508081504 | 35 | 144 | 2.0 | 3.0 | 0.00 | 0.00 | 0.00 | 76 | 1012.5 |
| 20260508081003 | 35 | 131 | 2.0 | 3.0 | 0.00 | 0.00 | 0.00 | 77 | 1012.2 |
| 20260508080004 | 34 | 103 | 2.0 | 2.0 | 0.00 | 0.00 | 0.00 | 77 | 1012.2 |
| 20260508075503 | 34 | 101 | 1.0 | 2.0 | 0.00 | 0.00 | 0.00 | 77 | 1012.2 |
| 20260508075004 | 35 | 112 | 2.0 | 2.0 | 0.00 | 0.00 | 0.00 | 77 | 1012.2 |
| 20260508074504 | 35 | 98 | 2.0 | 2.0 | 0.00 | 0.00 | 0.00 | 77 | 1012.5 |
| 20260508074004 | 35 | 42 | 1.0 | 2.0 | 0.00 | 0.00 | 0.00 | 76 | 1012.5 |
| 20260508073504 | 35 | 98 | 2.0 | 3.0 | 0.00 | 0.00 | 0.00 | 76 | 1012.2 |
| 20260508073004 | 35 | 144 | 2.0 | 3.0 | 0.00 | 0.00 | 0.00 | 76 | 1012.2 |
| 20260508072504 | 35 | 106 | 2.0 | 3.0 | 0.00 | 0.00 | 0.00 | 76 | 1012.2 |
| 20260508072004 | 35 | 95 | 2.0 | 2.0 | 0.00 | 0.00 | 0.00 | 75 | 1012.2 |
| 20260508071504 | 36 | 95 | 2.0 | 3.0 | 0.00 | 0.00 | 0.00 | 75 | 1012.2 |
| 20260508071003 | 36 | 122 | 2.0 | 3.0 | 0.00 | 0.00 | 0.00 | 74 | 1012.5 |
| 20260508070002 | 36 | 121 | 2.0 | 2.0 | 0.00 | 0.00 | 0.00 | 74 | 1012.5 |
| 20260508065503 | 36 | 116 | 0.0 | 2.0 | 0.00 | 0.00 | 0.00 | 73 | 1012.5 |
| 20260508065002 | 36 | 146 | 2.0 | 3.0 | 0.00 | 0.00 | 0.00 | 74 | 1012.5 |
| 20260508064503 | 36 | 104 | 0.0 | 3.0 | 0.00 | 0.00 | 0.00 | 74 | 1012.5 |
| 20260508064003 | 36 | 111 | 1.0 | 3.0 | 0.00 | 0.00 | 0.00 | 74 | 1012.9 |
| 20260508062502 | 36 | 154 | 2.0 | 3.0 | 0.00 | 0.00 | 0.00 | 74 | 1012.5 |
| 20260508062003 | 35 | 159 | 3.0 | 3.0 | 0.00 | 0.00 | 0.00 | 76 | 1012.9 |
| 20260508060503 | 35 | 144 | 1.0 | 3.0 | 0.00 | 0.00 | 0.00 | 76 | 1012.9 |
| 20260508060003 | 35 | 120 | 1.0 | 3.0 | 0.00 | 0.00 | 0.00 | 77 | 1012.9 |
| 20260508055503 | 35 | 141 | 2.0 | 3.0 | 0.00 | 0.00 | 0.00 | 78 | 1012.5 |
| 20260508055002 | 35 | 120 | 2.0 | 3.0 | 0.00 | 0.00 | 0.00 | 79 | 1013.2 |
| 20260508054503 | 35 | 140 | 2.0 | 3.0 | 0.00 | 0.00 | 0.00 | 78 | 1012.9 |
| 20260508054003 | 35 | 98 | 1.0 | 3.0 | 0.00 | 0.00 | 0.00 | 78 | 1013.2 |
| 20260508053504 | 35 | 137 | 2.0 | 3.0 | 0.00 | 0.00 | 0.00 | 78 | 1013.2 |
| 20260508053002 | 35 | 120 | 1.0 | 3.0 | 0.00 | 0.00 | 0.00 | 79 | 1013.2 |
| 20260508052502 | 35 | 123 | 2.0 | 3.0 | 0.00 | 0.00 | 0.00 | 79 | 1013.5 |
| 20260508052003 | 35 | 130 | 1.0 | 3.0 | 0.00 | 0.00 | 0.00 | 79 | 1013.5 |
| 20260508051003 | 35 | 129 | 0.0 | 3.0 | 0.00 | 0.00 | 0.00 | 79 | 1012.9 |
| 20260508050503 | 35 | 128 | 1.0 | 3.0 | 0.00 | 0.00 | 0.00 | 79 | 1013.2 |
| 20260508050002 | 35 | 123 | 1.0 | 3.0 | 0.00 | 0.00 | 0.00 | 80 | 1013.2 |
| 20260508045503 | 35 | 109 | 1.0 | 3.0 | 0.00 | 0.00 | 0.00 | 79 | 1013.2 |
| 20260508045003 | 35 | 145 | 2.0 | 3.0 | 0.00 | 0.00 | 0.00 | 79 | 1013.5 |
| 20260508044503 | 35 | 158 | 3.0 | 3.0 | 0.00 | 0.00 | 0.00 | 80 | 1013.2 |
| 20260508043003 | 35 | 127 | 2.0 | 3.0 | 0.00 | 0.00 | 0.00 | 79 | 1012.9 |
| 20260508042503 | 35 | 148 | 2.0 | 3.0 | 0.00 | 0.00 | 0.00 | 79 | 1012.9 |
| 20260508042003 | 35 | 151 | 1.0 | 3.0 | 0.00 | 0.00 | 0.00 | 78 | 1013.2 |
| 20260508041502 | 35 | 156 | 1.0 | 2.0 | 0.00 | 0.00 | 0.00 | 78 | 1013.2 |
| 20260508040503 | 35 | 109 | 1.0 | 2.0 | 0.00 | 0.00 | 0.00 | 78 | 1013.2 |
| 20260508040003 | 36 | 70 | 2.0 | 2.0 | 0.00 | 0.00 | 0.00 | 77 | 1013.2 |
| 20260508035503 | 36 | 8 | 0.0 | 2.0 | 0.00 | 0.00 | 0.00 | 76 | 1012.9 |
| 20260508035004 | 36 | 56 | 0.0 | 2.0 | 0.00 | 0.00 | 0.00 | 76 | 1013.2 |